| time (UTC) | temp C | wind direction | speed KPH | gust KPH | rain 1hr cm | rain 24hr cm | rain mn cm | humidity % | barometer mb |
| 20260507031306 | 17 | 294 | 1.6 | 4.8 | 93.04 | 0.00 | 0.00 | 99 | 1003.1 |
| 20260507030310 | 17 | 0 | 0.0 | 0.0 | 93.04 | 0.00 | 0.00 | 99 | 1002.7 |
| 20260507025301 | 18 | 318 | 1.6 | 3.2 | 93.04 | 0.00 | 0.00 | 99 | 1002.5 |
| 20260507024303 | 18 | 0 | 0.0 | 0.0 | 93.04 | 0.00 | 0.00 | 99 | 1002.3 |
| 20260507023307 | 18 | 287 | 3.2 | 8.0 | 93.04 | 0.00 | 0.00 | 99 | 1002.5 |
| 20260507022306 | 18 | 263 | 6.4 | 9.7 | 93.04 | 0.00 | 0.00 | 99 | 1002.4 |
| 20260507021301 | 18 | 267 | 6.4 | 8.0 | 93.04 | 0.00 | 0.00 | 99 | 1002.4 |
| 20260507020309 | 18 | 242 | 8.0 | 11.3 | 93.04 | 0.00 | 0.00 | 99 | 1002.7 |
| 20260507015306 | 18 | 255 | 9.7 | 11.3 | 93.04 | 0.00 | 0.00 | 99 | 1003.0 |
| 20260507014307 | 18 | 248 | 9.7 | 16.1 | 93.04 | 0.00 | 0.00 | 99 | 1003.0 |
| 20260507013303 | 18 | 256 | 8.0 | 11.3 | 93.04 | 0.00 | 0.00 | 99 | 1003.0 |
| 20260507012309 | 18 | 260 | 8.0 | 11.3 | 93.04 | 0.00 | 0.00 | 99 | 1002.9 |
| 20260507011309 | 18 | 267 | 6.4 | 9.7 | 93.04 | 0.00 | 0.00 | 99 | 1002.5 |
| 20260507010304 | 18 | 248 | 9.7 | 12.9 | 93.04 | 0.00 | 0.00 | 98 | 1002.7 |
| 20260507005305 | 18 | 255 | 9.7 | 16.1 | 93.04 | 0.00 | 0.00 | 98 | 1002.6 |
| 20260507003306 | 18 | 246 | 12.9 | 17.7 | 93.04 | 0.00 | 0.00 | 98 | 1002.5 |
| 20260507001306 | 18 | 229 | 12.9 | 16.1 | 93.04 | 0.00 | 0.00 | 98 | 1002.6 |
| 20260507000306 | 18 | 233 | 11.3 | 16.1 | 93.04 | 0.00 | 0.00 | 98 | 1002.2 |
| 20260506235306 | 18 | 252 | 11.3 | 16.1 | 93.04 | 0.00 | 0.00 | 98 | 1002.2 |
| 20260506234308 | 18 | 232 | 11.3 | 16.1 | 93.04 | 0.00 | 0.00 | 98 | 1002.0 |
| 20260506233302 | 18 | 238 | 11.3 | 16.1 | 93.04 | 0.00 | 0.00 | 98 | 1001.9 |
| 20260506232306 | 19 | 221 | 9.7 | 14.5 | 93.04 | 0.00 | 0.00 | 98 | 1001.8 |
| 20260506231302 | 19 | 260 | 12.9 | 17.7 | 93.04 | 0.00 | 0.00 | 98 | 1002.0 |
| 20260506230303 | 19 | 250 | 14.5 | 20.9 | 93.04 | 0.00 | 0.00 | 98 | 1002.0 |
| 20260506225305 | 19 | 266 | 16.1 | 24.1 | 93.04 | 0.00 | 0.00 | 98 | 1002.1 |
| 20260506224303 | 19 | 239 | 19.3 | 25.7 | 93.04 | 0.00 | 0.00 | 97 | 1002.0 |
| 20260506223304 | 19 | 257 | 17.7 | 27.4 | 93.04 | 0.00 | 0.00 | 97 | 1001.9 |
| 20260506222305 | 19 | 255 | 17.7 | 25.7 | 93.04 | 0.00 | 0.00 | 97 | 1001.9 |
| 20260506221303 | 19 | 245 | 19.3 | 27.4 | 93.04 | 0.00 | 0.00 | 97 | 1002.0 |
| 20260506220308 | 19 | 232 | 17.7 | 25.7 | 93.04 | 0.00 | 0.00 | 97 | 1001.9 |
| 20260506215306 | 19 | 249 | 20.9 | 27.4 | 93.04 | 0.00 | 0.00 | 97 | 1002.1 |
| 20260506214304 | 20 | 253 | 14.5 | 20.9 | 93.04 | 0.00 | 0.00 | 97 | 1001.8 |
| 20260506213303 | 19 | 232 | 16.1 | 24.1 | 93.04 | 0.00 | 0.00 | 97 | 1001.7 |
| 20260506212307 | 19 | 249 | 22.5 | 30.6 | 93.04 | 0.00 | 0.00 | 97 | 1001.8 |
| 20260506211302 | 19 | 264 | 17.7 | 27.4 | 93.04 | 0.00 | 0.00 | 97 | 1001.7 |
| 20260506210303 | 19 | 236 | 20.9 | 32.2 | 93.04 | 0.00 | 0.00 | 97 | 1001.8 |
| 20260506205306 | 19 | 270 | 24.1 | 35.4 | 93.04 | 0.00 | 0.00 | 97 | 1001.8 |
| 20260506204307 | 19 | 243 | 22.5 | 30.6 | 93.04 | 0.00 | 0.00 | 97 | 1001.7 |
| 20260506203303 | 19 | 239 | 22.5 | 32.2 | 93.04 | 0.00 | 0.00 | 97 | 1001.6 |
| 20260506202307 | 19 | 269 | 22.5 | 33.8 | 93.04 | 0.00 | 0.00 | 97 | 1001.5 |
| 20260506201301 | 19 | 240 | 19.3 | 29.0 | 93.04 | 0.00 | 0.00 | 97 | 1001.7 |
| 20260506200304 | 19 | 242 | 24.1 | 37.0 | 93.04 | 0.00 | 0.00 | 97 | 1001.8 |
| 20260506195305 | 18 | 273 | 24.1 | 37.0 | 93.04 | 0.00 | 0.00 | 97 | 1001.7 |
| 20260506194313 | 18 | 240 | 25.7 | 35.4 | 93.04 | 0.00 | 0.00 | 97 | 1001.8 |
| 20260506193305 | 18 | 253 | 27.4 | 41.8 | 93.04 | 0.00 | 0.00 | 97 | 1002.1 |
| 20260506192310 | 18 | 249 | 25.7 | 38.6 | 93.04 | 0.00 | 0.00 | 97 | 1002.1 |
| 20260506191305 | 18 | 249 | 24.1 | 35.4 | 93.04 | 0.00 | 0.00 | 98 | 1002.4 |
| 20260506190304 | 18 | 270 | 27.4 | 45.1 | 93.04 | 0.00 | 0.00 | 98 | 1002.3 |
| 20260506185306 | 18 | 263 | 27.4 | 41.8 | 93.04 | 0.00 | 0.00 | 98 | 1002.4 |
| 20260506184303 | 17 | 224 | 24.1 | 37.0 | 93.04 | 0.00 | 0.00 | 98 | 1002.5 |
| 20260506183302 | 17 | 266 | 22.5 | 35.4 | 93.04 | 0.00 | 0.00 | 98 | 1002.7 |
| 20260506182301 | 17 | 231 | 29.0 | 45.1 | 93.04 | 0.00 | 0.00 | 98 | 1002.7 |
| 20260506181302 | 17 | 248 | 30.6 | 48.3 | 93.04 | 0.00 | 0.00 | 98 | 1002.6 |
| 20260506180311 | 17 | 245 | 22.5 | 32.2 | 93.04 | 0.00 | 0.00 | 98 | 1002.8 |
| 20260506175301 | 17 | 248 | 27.4 | 46.7 | 93.04 | 0.00 | 0.00 | 98 | 1003.0 |
| 20260506174304 | 17 | 238 | 25.7 | 37.0 | 93.04 | 0.00 | 0.00 | 98 | 1002.9 |
| 20260506173304 | 17 | 236 | 25.7 | 35.4 | 93.04 | 0.00 | 0.00 | 98 | 1002.9 |
| 20260506172307 | 17 | 226 | 27.4 | 48.3 | 93.04 | 0.00 | 0.00 | 98 | 1002.9 |
| 20260506171303 | 17 | 248 | 20.9 | 33.8 | 93.04 | 0.00 | 0.00 | 99 | 1003.1 |
| 20260506170303 | 17 | 238 | 17.7 | 27.4 | 93.04 | 0.00 | 0.00 | 99 | 1003.1 |
| 20260506165308 | 17 | 246 | 19.3 | 29.0 | 93.04 | 0.00 | 0.00 | 99 | 1003.0 |
| 20260506164304 | 17 | 232 | 16.1 | 25.7 | 93.04 | 0.00 | 0.00 | 100 | 1003.1 |
| 20260506163304 | 16 | 225 | 16.1 | 29.0 | 93.04 | 0.00 | 0.00 | 100 | 1003.3 |
| 20260506162306 | 16 | 243 | 16.1 | 27.4 | 93.04 | 0.00 | 0.00 | 100 | 1003.6 |
| 20260506161301 | 16 | 231 | 16.1 | 20.9 | 93.04 | 0.00 | 0.00 | 100 | 1003.6 |
| 20260506160311 | 16 | 158 | 17.7 | 30.6 | 93.04 | 0.00 | 0.00 | 100 | 1003.5 |
| 20260506155305 | 16 | 224 | 17.7 | 27.4 | 93.04 | 0.00 | 0.00 | 100 | 1004.0 |
| 20260506154303 | 17 | 249 | 17.7 | 32.2 | 93.04 | 0.00 | 0.00 | 100 | 1004.3 |
| 20260506153304 | 17 | 235 | 20.9 | 32.2 | 93.04 | 0.00 | 0.00 | 99 | 1004.4 |
| 20260506152305 | 17 | 231 | 20.9 | 30.6 | 93.04 | 0.00 | 0.00 | 98 | 1004.2 |
| 20260506151310 | 17 | 226 | 20.9 | 33.8 | 93.04 | 0.00 | 0.00 | 98 | 1004.3 |
| 20260506150304 | 17 | 239 | 22.5 | 38.6 | 93.04 | 0.00 | 0.00 | 97 | 1004.2 |
| 20260506145305 | 18 | 233 | 25.7 | 41.8 | 93.04 | 0.00 | 0.00 | 96 | 1004.3 |
| 20260506144303 | 18 | 232 | 24.1 | 40.2 | 93.04 | 0.00 | 0.00 | 94 | 1004.2 |
| 20260506143304 | 18 | 240 | 25.7 | 40.2 | 93.04 | 0.00 | 0.00 | 93 | 1004.3 |
| 20260506142306 | 18 | 229 | 27.4 | 43.5 | 93.04 | 0.00 | 0.00 | 92 | 1004.4 |
| 20260506141301 | 18 | 233 | 24.1 | 41.8 | 93.04 | 0.00 | 0.00 | 92 | 1004.4 |
| 20260506140306 | 18 | 246 | 20.9 | 32.2 | 93.04 | 0.00 | 0.00 | 91 | 1004.3 |
| 20260506135307 | 19 | 243 | 20.9 | 30.6 | 93.04 | 0.00 | 0.00 | 90 | 1004.3 |
| 20260506134308 | 19 | 242 | 29.0 | 56.3 | 93.04 | 0.00 | 0.00 | 89 | 1004.2 |
| 20260506133302 | 19 | 243 | 25.7 | 37.0 | 93.04 | 0.00 | 0.00 | 89 | 1004.0 |
| 20260506132307 | 18 | 224 | 25.7 | 37.0 | 93.04 | 0.00 | 0.00 | 90 | 1004.0 |
| 20260506131301 | 18 | 238 | 25.7 | 40.2 | 93.04 | 0.00 | 0.00 | 90 | 1004.1 |
| 20260506130312 | 18 | 222 | 27.4 | 40.2 | 93.04 | 0.00 | 0.00 | 90 | 1004.1 |
| 20260506125305 | 18 | 235 | 27.4 | 43.5 | 93.04 | 0.00 | 0.00 | 90 | 1004.2 |
| 20260506123303 | 18 | 243 | 25.7 | 37.0 | 93.04 | 0.00 | 0.00 | 91 | 1004.3 |
| 20260506122309 | 18 | 238 | 25.7 | 40.2 | 93.04 | 0.00 | 0.00 | 92 | 1004.3 |
| 20260506121302 | 18 | 226 | 24.1 | 37.0 | 93.04 | 0.00 | 0.00 | 93 | 1004.3 |
| 20260506120304 | 18 | 233 | 22.5 | 37.0 | 93.04 | 0.00 | 0.00 | 94 | 1004.2 |
| 20260506115307 | 18 | 233 | 25.7 | 40.2 | 93.04 | 0.00 | 0.00 | 94 | 1004.3 |
| 20260506114312 | 18 | 238 | 22.5 | 35.4 | 93.04 | 0.00 | 0.00 | 95 | 1004.2 |
| 20260506113305 | 17 | 231 | 20.9 | 35.4 | 93.04 | 0.00 | 0.00 | 96 | 1004.0 |
| 20260506112306 | 17 | 225 | 19.3 | 35.4 | 93.04 | 0.00 | 0.00 | 96 | 1004.1 |
| 20260506111302 | 17 | 242 | 17.7 | 32.2 | 93.04 | 0.00 | 0.00 | 96 | 1004.1 |
| 20260506110306 | 17 | 232 | 19.3 | 33.8 | 93.04 | 0.00 | 0.00 | 96 | 1004.0 |
| 20260506105304 | 17 | 212 | 17.7 | 27.4 | 93.04 | 0.00 | 0.00 | 96 | 1004.1 |
| 20260506104304 | 17 | 217 | 19.3 | 25.7 | 93.04 | 0.00 | 0.00 | 96 | 1003.9 |
| 20260506103303 | 17 | 243 | 19.3 | 27.4 | 93.04 | 0.00 | 0.00 | 96 | 1004.0 |
| 20260506102305 | 17 | 228 | 19.3 | 30.6 | 93.04 | 0.00 | 0.00 | 96 | 1004.1 |
| 20260506101301 | 17 | 224 | 19.3 | 37.0 | 93.04 | 0.00 | 0.00 | 96 | 1004.2 |
| 20260506100303 | 17 | 242 | 19.3 | 29.0 | 93.04 | 0.00 | 0.00 | 97 | 1004.0 |
| 20260506095305 | 17 | 224 | 19.3 | 29.0 | 93.04 | 0.00 | 0.00 | 97 | 1004.0 |
| 20260506094307 | 17 | 232 | 16.1 | 22.5 | 93.04 | 0.00 | 0.00 | 97 | 1003.9 |
| 20260506093303 | 17 | 214 | 16.1 | 24.1 | 93.04 | 0.00 | 0.00 | 97 | 1004.0 |
| 20260506092306 | 17 | 243 | 16.1 | 27.4 | 93.04 | 0.00 | 0.00 | 97 | 1004.0 |
| 20260506091303 | 17 | 239 | 14.5 | 24.1 | 93.04 | 0.00 | 0.00 | 96 | 1004.0 |
| 20260506090306 | 17 | 232 | 14.5 | 27.4 | 93.04 | 0.00 | 0.00 | 96 | 1004.0 |
| 20260506085305 | 17 | 231 | 12.9 | 20.9 | 93.04 | 0.00 | 0.00 | 96 | 1003.9 |
| 20260506084305 | 17 | 229 | 16.1 | 24.1 | 93.04 | 0.00 | 0.00 | 96 | 1003.9 |
| 20260506083303 | 18 | 221 | 17.7 | 27.4 | 93.04 | 0.00 | 0.00 | 96 | 1003.8 |
| 20260506082305 | 18 | 250 | 19.3 | 30.6 | 93.04 | 0.00 | 0.00 | 96 | 1003.8 |
| 20260506081301 | 18 | 245 | 16.1 | 22.5 | 93.04 | 0.00 | 0.00 | 96 | 1003.9 |
| 20260506080305 | 18 | 218 | 17.7 | 27.4 | 93.04 | 0.00 | 0.00 | 96 | 1004.0 |
| 20260506073304 | 18 | 249 | 19.3 | 30.6 | 93.04 | 0.00 | 0.00 | 95 | 1004.0 |
| 20260506072302 | 18 | 240 | 20.9 | 30.6 | 93.04 | 0.00 | 0.00 | 95 | 1004.1 |
| 20260506071301 | 18 | 246 | 20.9 | 30.6 | 93.04 | 0.00 | 0.00 | 94 | 1004.0 |
| 20260506070303 | 19 | 229 | 19.3 | 30.6 | 93.04 | 0.00 | 0.00 | 94 | 1004.0 |
| 20260506062301 | 20 | 256 | 20.9 | 32.2 | 93.04 | 0.00 | 0.00 | 92 | 1004.1 |
| 20260506061303 | 20 | 215 | 19.3 | 29.0 | 93.04 | 0.00 | 0.00 | 92 | 1004.2 |
| 20260506060309 | 20 | 217 | 19.3 | 30.6 | 93.04 | 0.00 | 0.00 | 92 | 1004.2 |
| 20260506051302 | 19 | 214 | 14.5 | 30.6 | 93.04 | 0.00 | 0.00 | 93 | 1004.5 |
| 20260506050304 | 19 | 229 | 17.7 | 32.2 | 93.04 | 0.00 | 0.00 | 92 | 1004.5 |
| 20260506044304 | 19 | 235 | 16.1 | 24.1 | 93.04 | 0.00 | 0.00 | 92 | 1004.6 |
| 20260506043308 | 19 | 249 | 14.5 | 22.5 | 93.04 | 0.00 | 0.00 | 90 | 1004.6 |
| 20260506042305 | 20 | 218 | 17.7 | 25.7 | 93.04 | 0.00 | 0.00 | 89 | 1004.6 |
| 20260506041302 | 20 | 229 | 16.1 | 25.7 | 93.04 | 0.00 | 0.00 | 88 | 1004.6 |
| 20260506040303 | 20 | 235 | 14.5 | 27.4 | 93.04 | 0.00 | 0.00 | 87 | 1004.5 |
| 20260506034308 | 20 | 231 | 16.1 | 29.0 | 93.04 | 0.00 | 0.00 | 84 | 1004.4 |
| 20260506033303 | 21 | 205 | 17.7 | 25.7 | 93.04 | 0.00 | 0.00 | 83 | 1004.4 |
| 20260506032308 | 21 | 225 | 17.7 | 30.6 | 93.04 | 0.00 | 0.00 | 82 | 1004.4 |